Tracking 30260 objects as of 15-Feb-2025
HD Live streaming from Space Station
objects crossing your sky now

METEOR 1-17 DEB

Track METEOR 1-17 DEB now!
10-day predictions


NORAD ID: 57543
Int'l Code: 1974-025J
Perigee: 841.7 km
Apogee: 847.4 km
Inclination: 81.2 °
Period: 101.7 minutes
Semi major axis: 7215 km
RCS: Unknown
Launch date: April 24, 1974
Source: Commonwealth of Independent States (former USSR) (CIS)
Launch site: PLESETSK MISSILE AND SPACE COMPLEX (PKMTR)

Note: This is SATELLITE DEBRIS
Your satellite tracking list
Your tracking list is empty




NASA's NSSDC Master Catalog

Two Line Element Set (TLE):
1 57543U 74025J   25041.45386204  .00009350  00000-0  46953-2 0  9992
2 57543  81.1940  53.9534 0003951 306.2444  53.8365 14.16430068 87805
Source of the keplerian elements: AFSPC